Weather History for Springfield, VT

Change the Weather History Date:

Thursday, February 20, 2014

  Actual Average Record
Temperature  
Mean Temperature 34 °F 24 °F  
Max Temperature 46 °F 34 °F 48 °F (2001)
Min Temperature 21 °F 14 °F 3 °F (2007)
Degree Days  
Heating Degree Days 31 41  
Month to date heating degree days 941 859  
Since 1 July heating degree days 5366 5131  
Moisture  
Dew Point 27 °F    
Average Humidity 69    
Maximum Humidity 100    
Minimum Humidity 37    
Precipitation  
Precipitation 0.04 in 0.10 in 0.14 in (2002)
Month to date precipitation 0.58 1.97  
Year to date precipitation 2.87 4.89  
Sea Level Pressure  
Sea Level Pressure 30.10 in    
Wind  
Wind Speed 3 mph (SW)    
Max Wind Speed 14 mph    
Max Gust Speed 19 mph    
Visibility 6 miles    
Events Rain , Snow    
T = Trace of Precipitation, MM = Missing Value Source: NWS Daily Summary

Daily Weather History Graph

Daily Weather History Graph

Search for Another Location

Airport:

Trip Planner

Search our weather history database for the weather conditions in past years. The results will help you decide how hot, cold, wet, or windy it might be!

Date:

Astronomy

Feb. 20, 2014 Rise Set
Actual Time 6:40 AM EST 5:27 PM EST
Civil Twilight 6:11 AM EST 5:56 PM EST
Nautical Twilight 5:38 AM EST 6:29 PM EST
Astronomical Twilight 5:05 AM EST 7:02 PM EST
Moon 11:30 PM EST (2/20) 9:11 AM EST (2/20)
Length of Visible Light 11h 44m
Length of Day
10h 46m
Waning Gibbous, 71% of the Moon is Illuminated
Feb 20
Waning Gibbous
Feb 22
Last Quarter
Mar 1
New
Mar 8
First Quarter
Mar 16
Full

Hourly Weather History & Observations

Time (EST) Temp. Windchill Dew Point Humidity Pressure Visibility Wind Dir Wind Speed Gust Speed Precip Events Conditions
12:25 AM 24.1 °F 17.0 °F 23.0 °F 96% 29.88 in 4.0 mi ENE 5.8 mph - N/A   Mostly Cloudy
12:54 AM 26.1 °F - 24.1 °F 92% 29.93 in 5.0 mi Calm Calm - N/A   Overcast
1:15 AM 24.1 °F - 23.0 °F 96% 29.91 in 4.0 mi Calm Calm - N/A   Mostly Cloudy
1:54 AM 23.0 °F - 21.9 °F 96% 29.96 in 4.0 mi Calm Calm - N/A   Partly Cloudy
2:54 AM 21.9 °F - 21.0 °F 96% 29.97 in 4.0 mi Calm Calm - N/A   Clear
3:17 AM 21.0 °F - 19.9 °F 96% 29.96 in 1.5 mi Calm Calm - N/A   Clear
3:33 AM 24.1 °F - 21.9 °F 91% 29.96 in 2.0 mi Calm Calm - N/A   Partly Cloudy
3:44 AM 30.9 °F 21.7 °F 26.1 °F 82% 29.96 in 9.0 mi West 11.5 mph 18.4 mph N/A   Clear
3:54 AM 34.0 °F 27.2 °F 26.1 °F 73% 29.99 in 10.0 mi WNW 8.1 mph - N/A   Clear
4:54 AM 35.1 °F 30.1 °F 25.0 °F 67% 30.03 in 10.0 mi NW 5.8 mph - N/A   Clear
5:54 AM 34.0 °F 26.6 °F 23.0 °F 64% 30.07 in 10.0 mi North 9.2 mph - N/A   Clear
6:54 AM 21.0 °F 16.2 °F 19.0 °F 92% 30.14 in 5.0 mi South 3.5 mph - N/A   Clear
7:54 AM 21.9 °F - 21.9 °F 100% 30.13 in 3.0 mi Calm Calm - N/A   Clear
8:54 AM 27.0 °F - 24.1 °F 89% 30.15 in 8.0 mi Calm Calm - N/A   Clear
9:54 AM 32.0 °F 28.7 °F 26.1 °F 79% 30.18 in 10.0 mi SSE 3.5 mph - N/A   Clear
10:54 AM 37.0 °F - 27.0 °F 67% 30.18 in 10.0 mi Calm Calm - N/A   Clear
11:54 AM 41.0 °F 38.0 °F 23.0 °F 49% 30.14 in 10.0 mi East 4.6 mph - N/A   Clear
12:54 PM 44.1 °F 41.5 °F 19.9 °F 38% 30.13 in 10.0 mi SSE 4.6 mph - N/A   Clear
1:54 PM 45.0 °F 43.5 °F 19.0 °F 36% 30.15 in 10.0 mi South 3.5 mph - N/A   Clear
2:54 PM 44.1 °F 39.5 °F 21.0 °F 40% 30.15 in 10.0 mi SW 8.1 mph - N/A   Clear
3:54 PM 42.1 °F 38.4 °F 21.9 °F 45% 30.15 in 10.0 mi SW 5.8 mph - N/A   Overcast
4:54 PM 39.0 °F - 25.0 °F 57% 30.13 in 10.0 mi Calm Calm - N/A   Clear
5:54 PM 34.0 °F - 28.9 °F 82% 30.15 in 10.0 mi Calm Calm - N/A   Scattered Clouds
6:54 PM 33.1 °F - 28.9 °F 85% 30.16 in 10.0 mi Calm Calm - N/A   Overcast
7:54 PM 35.1 °F 32.2 °F 28.0 °F 76% 30.18 in 9.0 mi SW 3.5 mph - 0.00 in Rain Light Rain
8:06 PM 36.0 °F 32.1 °F 30.0 °F 79% 30.17 in 10.0 mi SSW 4.6 mph - 0.00 in Rain Light Rain
8:40 PM 34.0 °F - 33.1 °F 96% 30.18 in 6.0 mi Calm Calm - 0.02 in Rain Light Rain
8:54 PM 34.0 °F - 32.0 °F 92% 30.20 in 5.0 mi Calm Calm - 0.03 in Snow Light Snow
9:27 PM 33.1 °F - 32.0 °F 96% 30.17 in 2.5 mi Calm Calm - 0.01 in Snow Light Snow
9:36 PM 33.1 °F - 32.0 °F 96% 30.16 in 3.0 mi Calm Calm - 0.01 in Snow Light Snow
9:40 PM 32.0 °F - 32.0 °F 100% 30.15 in 2.5 mi Calm Calm - 0.01 in Snow Light Snow
9:43 PM 32.0 °F - 32.0 °F 100% 30.15 in 2.0 mi Calm Calm - 0.01 in Snow Light Snow
9:54 PM 32.0 °F - 32.0 °F 100% 30.17 in 2.5 mi Calm Calm - 0.01 in Snow Light Snow
9:59 PM 32.0 °F - 30.9 °F 96% 30.14 in 3.0 mi Calm Calm - 0.00 in Snow Light Snow
10:05 PM 32.0 °F - 30.9 °F 96% 30.13 in 1.8 mi Calm Calm - 0.00 in Snow Light Snow
10:13 PM 32.0 °F - 32.0 °F 100% 30.13 in 1.5 mi Calm Calm - 0.00 in Snow Light Snow
10:32 PM 32.0 °F - 32.0 °F 100% 30.12 in 2.0 mi Calm Calm - 0.00 in Snow Light Snow
10:42 PM 32.0 °F - 30.9 °F 96% 30.12 in 3.0 mi Calm Calm - 0.00 in Snow Light Snow
10:54 PM 32.0 °F - 32.0 °F 100% 30.13 in 8.0 mi Calm Calm - 0.00 in   Overcast
11:09 PM 32.0 °F - 32.0 °F 100% 30.11 in 10.0 mi Calm Calm - N/A   Overcast
11:54 PM 32.0 °F - 30.9 °F 96% 30.13 in 10.0 mi Calm Calm - N/A   Overcast